Location: Champs
(48.8539°N, 2.6040°E)
Time: 04:54:27
(UTC+00:00)

Spot 4 Rocket - Pass Details

Date: 26 October 2021
Orbit: 776 x 780 km, 98.8° (Epoch: 04 December)

Event Time Altitude Azimuth Distance (km) Brightness Sun altitude
Rises 04:31:03 0° 9° (N) 3,270 7.4 -19.6°
Reaches altitude 10° 04:33:28 10° 3° (N) 2,339 6.6 -19.2°
Maximum altitude 04:38:19 43° 294° (WNW) 1,080 4.3 -18.5°
Enters shadow 04:40:20 30° 244° (WSW) 1,383 4.8 -18.1°
